Weather History for Saginaw, MI

Change the Weather History Date:

Sunday, November 25, 2012

  Actual Average Record
Temperature  
Mean Temperature 30 °F 35 °F  
Max Temperature 34 °F 41 °F 57 °F (2011)
Min Temperature 26 °F 28 °F 17 °F (2005)
Degree Days  
Heating Degree Days 35    
Month to date heating degree days  
Since 1 July heating degree days  
Cooling Degree Days 0    
Month to date cooling degree days  
Year to date cooling degree days  
Moisture  
Dew Point 24 °F    
Average Humidity 82    
Maximum Humidity 93    
Minimum Humidity 64    
Precipitation  
Precipitation 0.01 in 0.08 in 0.20 in (2010)
Month to date precipitation 2.31  
Year to date precipitation 29.29  
Snow  
Snow 0.00 in - - ()
Month to date snowfall  
Since 1 July snowfall  
Since 1 September snowfall  
Snow Depth -    
Sea Level Pressure  
Sea Level Pressure 29.89 in    
Wind  
Wind Speed 10 mph (SW)    
Max Wind Speed 16 mph    
Max Gust Speed 20 mph    
Visibility 5 miles    
Events Snow    
T = Trace of Precipitation, MM = Missing Value Source: NWS Daily Summary

Daily Weather History Graph

Daily Weather History Graph

Search for Another Location

Airport:

Trip Planner

Search our weather history database for the weather conditions in past years. The results will help you decide how hot, cold, wet, or windy it might be!

Date:

Astronomy

Nov. 25, 2012 Rise Set
Actual Time 7:43 AM EST 5:03 PM EST
Civil Twilight 7:11 AM EST 5:35 PM EST
Nautical Twilight 6:36 AM EST 6:10 PM EST
Astronomical Twilight 6:01 AM EST 6:44 PM EST
Moon 3:22 PM EST (11/25) 4:52 AM EST (11/25)
Length of Visible Light 10h 23m
Length of Day
9h 20m
Waxing Gibbous, 93% of the Moon is Illuminated
Nov 25
Waxing Gibbous
Nov 28
Full
Dec 6
Last Quarter
Dec 13
New
Dec 20
First Quarter

Hourly Weather History & Observations

Time (EST) Temp. Windchill Dew Point Humidity Pressure Visibility Wind Dir Wind Speed Gust Speed Precip Events Conditions
12:53 AM 28.9 °F 21.9 °F 18.0 °F 64% 30.01 in 10.0 mi SW 6.9 mph - N/A   Overcast
1:53 AM 28.9 °F 22.8 °F 19.0 °F 67% 29.98 in 10.0 mi SSW 5.8 mph - N/A   Overcast
2:53 AM 30.0 °F 23.2 °F 19.0 °F 64% 29.99 in 10.0 mi SW 6.9 mph - N/A   Overcast
3:17 AM 28.4 °F 18.0 °F 21.2 °F 74% 29.95 in 1.8 mi SW 12.7 mph - 0.00 in Snow Light Snow
3:29 AM 28.4 °F 21.2 °F 24.8 °F 86% 29.94 in 1.0 mi SSW 6.9 mph - 0.00 in Snow Light Snow
3:53 AM 28.0 °F 20.0 °F 25.0 °F 88% 29.94 in 1.8 mi SSW 8.1 mph - 0.00 in Snow Light Snow
4:04 AM 28.4 °F 18.0 °F 24.8 °F 86% 29.91 in 2.0 mi SSW 12.7 mph - 0.00 in Snow Light Snow
4:15 AM 28.4 °F 19.1 °F 23.0 °F 80% 29.91 in 3.0 mi SW 10.4 mph 19.6 mph 0.00 in Snow Light Snow
4:29 AM 26.6 °F 16.8 °F 24.8 °F 93% 29.90 in 1.8 mi South 10.4 mph - 0.00 in Snow Light Snow
4:41 AM 26.6 °F 15.7 °F 23.0 °F 86% 29.90 in 1.5 mi SSW 12.7 mph - 0.00 in Snow Light Snow
4:51 AM 26.6 °F 16.2 °F 24.8 °F 93% 29.89 in 1.0 mi SSW 11.5 mph - 0.00 in Snow Light Snow
4:53 AM 27.0 °F 16.7 °F 24.1 °F 89% 29.92 in 1.0 mi SSW 11.5 mph - 0.00 in Snow Light Snow
5:00 AM 26.6 °F 16.8 °F 24.8 °F 93% 29.89 in 0.8 mi SSW 10.4 mph - 0.01 in Snow Light Snow
5:13 AM 26.6 °F 16.8 °F 24.8 °F 93% 29.89 in 1.0 mi SSW 10.4 mph - 0.01 in Snow Light Snow
5:18 AM 26.6 °F 17.5 °F 24.8 °F 93% 29.89 in 0.8 mi SSW 9.2 mph - 0.01 in Snow Light Snow
5:25 AM 26.6 °F 16.8 °F 24.8 °F 93% 29.88 in 1.0 mi South 10.4 mph - 0.01 in Snow Light Snow
5:37 AM 26.6 °F 16.2 °F 24.8 °F 93% 29.87 in 1.2 mi South 11.5 mph - 0.01 in Snow Light Snow
5:53 AM 27.0 °F 16.7 °F 24.1 °F 89% 29.89 in 1.0 mi South 11.5 mph - 0.01 in Snow Light Snow
6:01 AM 26.6 °F 16.8 °F 23.0 °F 86% 29.86 in 1.5 mi SSW 10.4 mph - 0.00 in Snow Light Snow
6:13 AM 26.6 °F 16.8 °F 24.8 °F 93% 29.86 in 0.8 mi SSW 10.4 mph - 0.00 in Snow Light Snow
6:24 AM 26.6 °F 16.8 °F 23.0 °F 86% 29.86 in 1.2 mi SSW 10.4 mph - 0.00 in Snow Light Snow
6:53 AM 27.0 °F 17.3 °F 24.1 °F 89% 29.88 in 0.8 mi SSW 10.4 mph - 0.00 in Snow Light Snow
6:56 AM 26.6 °F 16.8 °F 24.8 °F 93% 29.85 in 1.0 mi SSW 10.4 mph - 0.00 in Snow Light Snow
7:35 AM 26.6 °F 17.5 °F 23.0 °F 86% 29.84 in 2.5 mi SSW 9.2 mph - 0.00 in Snow Light Snow
7:45 AM 26.6 °F 17.5 °F 23.0 °F 86% 29.84 in 3.0 mi SSW 9.2 mph - 0.00 in Snow Light Snow
7:53 AM 27.0 °F 16.7 °F 23.0 °F 85% 29.87 in 3.0 mi SSW 11.5 mph - 0.00 in Snow Light Snow
8:53 AM 28.0 °F 18.1 °F 23.0 °F 81% 29.86 in 7.0 mi SSW 11.5 mph - 0.00 in   Overcast
9:22 AM 28.4 °F 18.0 °F 24.8 °F 86% 29.84 in 2.5 mi SW 12.7 mph - 0.00 in Snow Light Snow
9:40 AM 28.4 °F 17.0 °F 24.8 °F 86% 29.84 in 3.0 mi SW 15.0 mph - 0.00 in Snow Light Snow
9:53 AM 28.0 °F 18.1 °F 24.1 °F 85% 29.86 in 4.0 mi SW 11.5 mph - 0.00 in   Overcast
10:14 AM 28.4 °F 16.6 °F 24.8 °F 86% 29.84 in 6.0 mi SW 16.1 mph - N/A   Haze
10:53 AM 28.9 °F 17.7 °F 24.1 °F 82% 29.86 in 7.0 mi SW 15.0 mph - N/A   Overcast
11:53 AM 30.0 °F 21.1 °F 24.1 °F 79% 29.85 in 10.0 mi SW 10.4 mph - N/A   Overcast
12:53 PM 30.9 °F 21.7 °F 24.1 °F 76% 29.84 in 10.0 mi SW 11.5 mph - N/A   Overcast
1:53 PM 32.0 °F 23.6 °F 25.0 °F 75% 29.83 in 10.0 mi SW 10.4 mph - N/A   Overcast
2:49 PM 33.8 °F 25.8 °F 24.8 °F 70% 29.81 in 10.0 mi SW 10.4 mph - N/A   Overcast
2:53 PM 33.1 °F 23.4 °F 25.0 °F 72% 29.83 in 10.0 mi SW 13.8 mph - N/A   Overcast
3:53 PM 33.1 °F 25.5 °F 26.1 °F 75% 29.85 in 9.0 mi SW 9.2 mph - N/A   Overcast
4:09 PM 33.8 °F 25.8 °F 26.6 °F 75% 29.83 in 9.0 mi SW 10.4 mph - N/A   Overcast
4:45 PM 33.8 °F 27.7 °F 26.6 °F 75% 29.84 in 9.0 mi WSW 6.9 mph - N/A   Overcast
4:53 PM 33.1 °F 26.9 °F 27.0 °F 78% 29.87 in 9.0 mi WSW 6.9 mph - N/A   Overcast
5:21 PM 33.8 °F 27.7 °F 26.6 °F 75% 29.85 in 10.0 mi WSW 6.9 mph - N/A   Overcast
5:53 PM 33.1 °F 26.1 °F 27.0 °F 78% 29.89 in 9.0 mi West 8.1 mph - N/A   Overcast
6:53 PM 34.0 °F 26.0 °F 25.0 °F 70% 29.91 in 10.0 mi West 10.4 mph - N/A   Overcast
7:53 PM 33.1 °F 24.9 °F 24.1 °F 70% 29.93 in 10.0 mi West 10.4 mph - N/A   Mostly Cloudy
8:53 PM 30.9 °F 24.3 °F 23.0 °F 72% 29.94 in 10.0 mi West 6.9 mph - N/A   Scattered Clouds
9:53 PM 27.0 °F 19.5 °F 21.0 °F 78% 29.96 in 10.0 mi West 6.9 mph - N/A   Clear
10:53 PM 30.0 °F 22.4 °F 23.0 °F 75% 29.98 in 10.0 mi WSW 8.1 mph - N/A   Overcast
11:53 PM 30.0 °F 24.1 °F 23.0 °F 75% 29.99 in 10.0 mi WSW 5.8 mph - N/A   Overcast